PILOTS ONLINE: 134    ATC ONLINE: 21

PANT

Annette Island Airport

Location

IATA ANN
City Annette
Country  United States
Latitude 55° 2' 32" N
Longitude 131° 34' 19" W
Elevation 119 ft
Type Medium Airport

Map

Weather

METAR
2014/10/23 05:53
PANT 230553Z AUTO 10008G16KT 9SM -RA FEW030 OVC042 08/06 A2934 RMK AO2 SLP936 P0005 60024 T00830061 10094 20072 58003 TSNO
TAF
No TAF available

Runways

02/20 5709 ft / 150 ft
12/30 7493 ft / 150 ft

Outbound flights

Callsign Flying to Pilot ATD/STD ETA Aircraft

Inbound flights

Callsign Flying from Pilot ATD ETA Aircraft